[[{"header":{"parameterUnit":"m.s-1","parameterCategory":1,"la1":30.2991,"la2":30.254,"lo1":-89.0895,"lo2":-89.0444,"dy":0.0017,"dx":0.0017,"nx":28,"ny":28,"refTime":"2024-08-07T03:00:00:Z","depth":0,"parameterNumber":2,"parameterNumberName":"U-component_of_WINDS"},"data":[0,0,0,0,0,0,0,0,0,0,0,0,0,0,0,0,0,0,0,0,0,0,0,0,0,0,0,0,0,0,0,0,0,0,0,0,0,0,0,0,0,0,0,0,0,0,0,0,0,0,0,0,0,0,0,0,0,0,2.4043,2.4044,0,2.4148,2.4149,2.415,2.4138,2.4136,2.4135,2.4133,2.4241,2.4245,2.425,0,0,0,0,0,0,0,0,0,0,0,0,0,2.3833,2.3837,2.4043,2.4044,2.4046,2.4148,2.4149,2.4151,2.4138,2.4136,2.4134,2.4132,2.424,2.4245,2.425,0,0,0,0,0,0,0,0,0,0,0,0,0,2.393,2.3838,2.4043,2.4052,2.4054,2.4148,2.4149,2.4151,2.4139,2.4136,2.4134,2.4131,2.4238,2.4244,2.4251,2.4343,0,0,2.4271,2.4274,0,0,0,0,0,0,0,0,2.3924,2.3938,2.4049,2.4051,2.4053,2.4127,2.4115,2.4215,2.4139,2.4106,2.4133,2.413,2.4205,2.4214,2.424,2.4348,2.4352,2.4272,2.4276,2.4279,2.4281,0,0,0,0,0,0,0,2.3918,2.3933,2.4084,2.4051,2.4053,2.4051,2.4062,2.4134,2.4169,2.4109,2.4108,2.4121,2.4206,2.4233,2.4242,2.4354,2.4272,2.4278,2.4282,2.4284,2.4545,2.4548,0,0,0,0,0,0,2.3909,2.3928,2.4081,2.4088,2.3981,2.4057,2.4069,2.4106,2.4168,2.4175,2.4123,2.412,2.4223,2.4234,2.4246,2.4359,2.4279,2.4285,2.4289,2.4542,2.4546,2.4549,0,0,0,0,0,0,2.3904,2.3922,2.4077,2.4008,2.4027,2.4063,2.4105,2.411,2.4137,2.4179,2.4185,2.4145,2.4222,2.4237,2.4319,2.4362,2.4288,2.4294,2.4539,2.4543,2.4547,2.4584,0,0,0,0,0,0,2.3898,2.3921,2.3956,2.4008,2.4031,2.4148,2.4108,2.4113,2.4148,2.4145,2.42,2.4207,2.4221,2.4309,2.4326,2.437,2.4299,2.4535,2.4541,2.4546,2.4579,2.4589,2.4598,0,0,0,0,0,2.3891,2.3962,2.3957,2.3976,2.4075,2.415,2.4163,2.4178,2.4152,2.4187,2.4215,2.4205,2.4355,2.4318,2.4336,2.4383,2.4532,2.4539,2.4545,2.4575,2.4587,2.4598,0,0,0,0,0,0,2.3912,2.3969,2.3965,2.4054,2.4098,2.4148,2.4193,2.419,2.4241,2.4236,2.4252,2.4265,2.4349,2.4374,2.4332,2.4477,2.444,2.4451,2.4457,2.4468,2.4478,2.447,2.4305,0,0,0,0,0,2.3928,2.3984,2.403,2.4105,2.4127,2.4157,2.419,2.4198,2.4243,2.4261,2.4294,2.4339,2.4397,2.4434,2.4489,2.4583,2.4596,2.4625,2.4634,2.4641,2.465,2.4704,2.4718,2.457,2.457,2.457,0,0,2.396,2.3997,2.4032,2.4111,2.4145,2.4204,2.4172,2.4235,2.4279,2.4271,2.4351,2.4377,2.4429,2.4518,2.4559,2.4542,2.4694,2.465,2.4655,2.4661,2.4712,2.4726,2.4738,2.4575,2.4574,2.4573,0,0,2.4048,2.4082,2.4149,2.4184,2.4237,2.4257,2.4273,2.4325,2.4342,2.4423,2.4418,2.4471,2.4569,2.4606,2.4638,2.4743,2.4737,2.4761,2.4809,2.4861,2.4873,2.4883,2.4922,2.4935,2.477,2.477,2.477,0,2.4081,2.4169,2.4184,2.4248,2.4283,2.4279,2.4348,2.4382,2.445,2.4474,2.4455,2.4579,2.4613,2.4712,2.4738,2.4763,2.4783,2.4754,2.487,2.4881,2.489,2.4927,2.4942,2.4772,2.4772,2.4772,2.4772,0,2.4208,2.4269,2.4317,2.4383,2.4424,2.449,2.4515,2.4555,2.456,2.4581,2.4665,2.4706,2.477,2.4794,2.4799,2.4895,2.4882,2.4866,2.483,2.4907,2.4942,2.4956,2.4776,2.4775,2.4774,2.4774,0,0,2.4312,2.4387,2.4404,2.4435,2.4494,2.4542,2.4608,2.4671,2.4705,2.4753,2.481,2.4894,2.488,2.4916,2.4926,2.4971,2.5053,2.495,2.4951,2.4968,2.5163,2.5175,2.5191,2.505,2.5053,2.5055,2.5159,0,2.4406,2.4524,2.4539,2.4644,2.4701,2.47,2.4758,2.4801,2.4824,2.4876,2.4902,2.4962,2.4938,2.496,2.5005,2.5034,2.5093,2.5026,2.5104,2.5106,2.5091,2.5209,2.5221,2.5317,2.5172,2.5174,2.5176,0,2.4532,2.4584,2.4694,2.4747,2.4771,2.4823,2.4883,2.4933,2.4983,2.4997,2.5038,2.5042,2.5112,2.5074,2.5171,2.5126,2.5159,2.5178,2.5182,2.519,2.5146,2.522,2.5348,2.5362,2.5198,2.5196,2.5194,0,2.4597,2.4695,2.4774,2.48,2.4863,2.49,2.4929,2.4976,2.5013,2.5066,2.509,2.515,2.5183,2.523,2.5251,2.5221,2.5348,2.5311,2.5362,2.5362,2.5389,2.5387,2.5524,2.541,2.5409,2.5409,2.5409,0,2.4701,2.4769,2.4804,2.4853,2.4929,2.4947,2.5022,2.5049,2.5092,2.5146,2.5149,2.52,2.5224,2.528,2.5296,2.5375,2.539,2.5404,2.5408,2.5404,2.5402,2.5425,2.5419,2.5413,2.5412,2.5411,2.5411,0,2.4787,2.4813,2.4899,2.4953,2.4968,2.5022,2.5068,2.5116,2.5139,2.5208,2.5225,2.5262,2.5327,2.5353,2.5433,2.5444,2.5536,2.5534,2.5519,2.552,2.557,2.5565,2.5727,2.575,2.562,2.5621,2.5622,0,2.4852,2.4904,2.4963,2.5,2.503,2.5089,2.5127,2.5148,2.5188,2.525,2.529,2.5356,2.5409,2.5514,2.5548,2.561,2.561,2.5663,2.5619,2.5614,2.5612,2.5608,2.5614,2.567,2.5672,2.5673,2.5674,0,2.4964,2.4975,2.503,2.5091,2.5137,2.5185,2.5233,2.5263,2.5291,2.5336,2.5404,2.5445,2.5527,2.5593,2.5657,2.5687,2.5686,2.5687,2.5703,2.5699,2.5688,2.5696,2.5541,2.5683,2.5682,2.5682,2.5681,2.5681,2.5041,2.5088,2.5138,2.52,2.5238,2.5283,2.5331,2.536,2.5417,2.5485,2.5494,2.5567,2.5617,2.5703,2.5736,2.5793,2.578,2.5801,2.5807,2.5812,2.5816,2.568,2.5805,2.5805,2.5805,2.5804,2.5804,0,2.5154,2.5187,2.5243,2.531,2.536,2.5354,2.5407,2.5449,2.5512,2.5559,2.5612,2.5691,2.5755,2.5794,2.5859,2.5898,2.5899,2.5914,2.5911,2.5919,2.5824,2.5805,2.5912,2.5912,2.5912,2.5912,2.5912,2.5912,2.5219,2.5298,2.5315,2.5414,2.5446,2.5517,2.5548,2.559,2.5627,2.5715,2.5768,2.5794,2.5838,2.5907,2.5966,2.5976,2.6,2.6016,2.6025,2.5936,2.5925,2.5914,2.5896,2.6021,2.6021,2.6115,2.6116,2.6117]},{"header":{"parameterUnit":"m.s-1","parameterCategory":1,"la1":30.2991,"la2":30.254,"lo1":-89.0895,"lo2":-89.0444,"dy":0.0017,"dx":0.0017,"nx":28,"ny":28,"refTime":"2024-08-07T03:00:00:Z","depth":0,"parameterNumber":3,"parameterNumberName":"V-component_of_WINDS"},"data":[0,0,0,0,0,0,0,0,0,0,0,0,0,0,0,0,0,0,0,0,0,0,0,0,0,0,0,0,0,0,0,0,0,0,0,0,0,0,0,0,0,0,0,0,0,0,0,0,0,0,0,0,0,0,0,0,0,0,-2.4796,-2.4798,0,-2.4921,-2.4922,-2.4924,-2.4924,-2.4923,-2.4921,-2.492,-2.5049,-2.5054,-2.5059,0,0,0,0,0,0,0,0,0,0,0,0,0,-2.4562,-2.4566,-2.4796,-2.4798,-2.4799,-2.4921,-2.4922,-2.4924,-2.4925,-2.4923,-2.4921,-2.4919,-2.5048,-2.5053,-2.5059,0,0,0,0,0,0,0,0,0,0,0,0,0,-2.4673,-2.4568,-2.4796,-2.4814,-2.4817,-2.492,-2.4922,-2.4924,-2.4925,-2.4923,-2.492,-2.4918,-2.5046,-2.5053,-2.506,-2.5154,0,0,-2.5083,-2.5086,0,0,0,0,0,0,0,0,-2.4667,-2.4682,-2.481,-2.4813,-2.4817,-2.4905,-2.4887,-2.5002,-2.4926,-2.4884,-2.492,-2.4917,-2.5003,-2.5014,-2.5043,-2.516,-2.5166,-2.5084,-2.5088,-2.5091,-2.5093,0,0,0,0,0,0,0,-2.4659,-2.4676,-2.4846,-2.4812,-2.4816,-2.4817,-2.483,-2.4909,-2.4956,-2.4888,-2.4888,-2.4902,-2.5005,-2.5036,-2.5046,-2.5168,-2.5083,-2.509,-2.5095,-2.5097,-2.537,-2.5372,0,0,0,0,0,0,-2.4647,-2.467,-2.4842,-2.4849,-2.4734,-2.4823,-2.4838,-2.4879,-2.4955,-2.4964,-2.4904,-2.4902,-2.5024,-2.5037,-2.505,-2.5166,-2.5091,-2.5098,-2.5102,-2.5367,-2.537,-2.5373,0,0,0,0,0,0,-2.4642,-2.4663,-2.4837,-2.476,-2.4782,-2.483,-2.4876,-2.4882,-2.4913,-2.4968,-2.4976,-2.4927,-2.5023,-2.504,-2.5128,-2.517,-2.5102,-2.5108,-2.5364,-2.5368,-2.5372,-2.5397,0,0,0,0,0,0,-2.4636,-2.4661,-2.4696,-2.4761,-2.4786,-2.4912,-2.4878,-2.4887,-2.4926,-2.4924,-2.4991,-2.5,-2.5022,-2.5117,-2.5136,-2.5179,-2.5114,-2.536,-2.5366,-2.5371,-2.5393,-2.5401,-2.5409,0,0,0,0,0,-2.4627,-2.4699,-2.4698,-2.4719,-2.4831,-2.4914,-2.4929,-2.4952,-2.4929,-2.4966,-2.5001,-2.4998,-2.5163,-2.5126,-2.5147,-2.5193,-2.5358,-2.5364,-2.537,-2.5389,-2.54,-2.5409,0,0,0,0,0,0,-2.4638,-2.4707,-2.4707,-2.4801,-2.4852,-2.4914,-2.4961,-2.4963,-2.5021,-2.5017,-2.5044,-2.5059,-2.5148,-2.518,-2.5138,-2.5289,-2.5258,-2.5268,-2.5265,-2.5275,-2.5283,-2.5274,-2.512,0,0,0,0,0,-2.4652,-2.4713,-2.477,-2.4847,-2.4873,-2.4912,-2.4949,-2.4963,-2.5017,-2.5038,-2.508,-2.5132,-2.5196,-2.5238,-2.5299,-2.5397,-2.5413,-2.544,-2.5448,-2.5454,-2.5463,-2.5518,-2.5531,-2.5394,-2.5394,-2.5394,0,0,-2.468,-2.4725,-2.4762,-2.4851,-2.4892,-2.4955,-2.493,-2.4998,-2.5046,-2.5049,-2.5135,-2.5167,-2.5228,-2.5322,-2.5365,-2.5351,-2.5505,-2.5462,-2.5467,-2.5473,-2.5526,-2.5539,-2.5551,-2.5398,-2.5397,-2.5397,0,0,-2.4764,-2.4804,-2.4873,-2.4915,-2.4976,-2.5003,-2.5019,-2.5082,-2.5103,-2.519,-2.5193,-2.5251,-2.536,-2.5403,-2.544,-2.5541,-2.5541,-2.5561,-2.5604,-2.5657,-2.5668,-2.5678,-2.5714,-2.5727,-2.557,-2.557,-2.557,0,-2.4792,-2.4886,-2.4909,-2.4977,-2.5016,-2.5022,-2.5093,-2.5132,-2.5211,-2.5239,-2.5222,-2.5359,-2.54,-2.5505,-2.553,-2.5559,-2.558,-2.5553,-2.5664,-2.5674,-2.5684,-2.5719,-2.5733,-2.5572,-2.5572,-2.5571,-2.5571,0,-2.4917,-2.4983,-2.5032,-2.5107,-2.5152,-2.5222,-2.5256,-2.5299,-2.5309,-2.5337,-2.5426,-2.5476,-2.5548,-2.5574,-2.5585,-2.5681,-2.567,-2.5658,-2.5627,-2.5699,-2.5732,-2.5746,-2.5575,-2.5574,-2.5573,-2.5573,0,0,-2.5011,-2.5099,-2.5116,-2.5151,-2.522,-2.5272,-2.5342,-2.5412,-2.5448,-2.5503,-2.5563,-2.5656,-2.5646,-2.5687,-2.5703,-2.575,-2.5828,-2.5733,-2.5735,-2.5749,-2.5938,-2.5946,-2.5961,-2.5828,-2.5831,-2.5833,-2.5932,0,-2.5103,-2.5226,-2.5249,-2.5357,-2.5418,-2.5425,-2.5486,-2.5536,-2.5564,-2.5622,-2.5654,-2.5719,-2.5701,-2.5726,-2.5772,-2.5808,-2.5866,-2.5802,-2.5885,-2.5888,-2.5869,-2.5978,-2.5987,-2.6078,-2.5946,-2.5948,-2.595,0,-2.5225,-2.5283,-2.5396,-2.5458,-2.5484,-2.5539,-2.5605,-2.566,-2.5717,-2.5734,-2.5781,-2.5792,-2.5866,-2.5832,-2.5935,-2.5891,-2.5926,-2.5949,-2.5954,-2.5962,-2.5923,-2.599,-2.6108,-2.6121,-2.597,-2.5969,-2.5967,0,-2.5283,-2.5388,-2.547,-2.55,-2.5573,-2.5611,-2.5644,-2.5699,-2.5739,-2.5798,-2.5825,-2.5892,-2.5928,-2.598,-2.6009,-2.5982,-2.6111,-2.6079,-2.6128,-2.6128,-2.6155,-2.6153,-2.628,-2.6178,-2.6178,-2.6177,-2.6177,0,-2.5382,-2.5452,-2.5497,-2.5547,-2.5626,-2.5652,-2.573,-2.5762,-2.581,-2.5868,-2.5878,-2.5932,-2.5967,-2.6027,-2.605,-2.6132,-2.6149,-2.6166,-2.6171,-2.6165,-2.6163,-2.6189,-2.6183,-2.6181,-2.618,-2.618,-2.6179,0,-2.5459,-2.5492,-2.5582,-2.5644,-2.5662,-2.5717,-2.5771,-2.5821,-2.5849,-2.5922,-2.5941,-2.5987,-2.6057,-2.6091,-2.6179,-2.6195,-2.6288,-2.629,-2.6269,-2.6271,-2.6318,-2.6314,-2.6467,-2.6488,-2.6372,-2.6373,-2.6374,0,-2.552,-2.5574,-2.5642,-2.5681,-2.5714,-2.5777,-2.5818,-2.5847,-2.589,-2.596,-2.6002,-2.6073,-2.6131,-2.6244,-2.6285,-2.6353,-2.6356,-2.6405,-2.6366,-2.6358,-2.6357,-2.6353,-2.6359,-2.6412,-2.6413,-2.6414,-2.6415,0,-2.5625,-2.5639,-2.5698,-2.5764,-2.5813,-2.5866,-2.5918,-2.595,-2.5987,-2.6036,-2.6108,-2.6153,-2.6243,-2.6313,-2.6384,-2.6419,-2.6424,-2.6427,-2.6442,-2.6436,-2.6421,-2.643,-2.6288,-2.6423,-2.6422,-2.6421,-2.6421,-2.6421,-2.5697,-2.5745,-2.58,-2.5866,-2.5908,-2.5957,-2.6007,-2.6042,-2.6102,-2.6177,-2.6191,-2.6267,-2.6324,-2.642,-2.6457,-2.6518,-2.6507,-2.6529,-2.6534,-2.6539,-2.6542,-2.6412,-2.6531,-2.6531,-2.6531,-2.6531,-2.653,0,-2.5802,-2.5838,-2.5899,-2.5971,-2.6024,-2.6023,-2.6081,-2.6125,-2.6192,-2.6244,-2.6301,-2.6385,-2.6453,-2.6501,-2.6571,-2.6611,-2.6615,-2.6628,-2.6626,-2.6634,-2.6547,-2.6527,-2.6624,-2.6624,-2.6624,-2.6624,-2.6624,-2.6624,-2.5863,-2.5945,-2.5965,-2.6069,-2.6105,-2.6179,-2.6212,-2.6258,-2.63,-2.6392,-2.6449,-2.6479,-2.653,-2.6604,-2.6668,-2.668,-2.6706,-2.6719,-2.6731,-2.665,-2.664,-2.663,-2.6612,-2.6725,-2.6725,-2.6813,-2.6814,-2.6814]}]]